Location: Unspecified
(0.0000°N, 0.0000°E)
Time: 17:34:28
(UTC+02:00)

Cosmos 2219 - Visible Passes

Search period start: 17 September 2014 00:00
Search period end: 27 September 2014 00:00
Orbit: 835 x 859 km, 71.1° (Epoch: 17 September)

Date Brightness Start Highest point End Pass type
(mag) Time Alt. Az. Time Alt. Az. Time Alt. Az.
21 Sep 5.5 21:57:05 10° N 21:57:24 12° N 21:57:24 12° N visible
22 Sep 4.8 21:43:46 10° N 21:45:42 22° N 21:45:42 22° N visible
23 Sep 3.7 21:30:27 10° N 21:34:21 42° NNE 21:34:21 42° NNE visible
24 Sep 3.2 21:17:07 10° N 21:22:36 56° ENE 21:23:32 49° ESE visible
25 Sep 3.2 21:03:48 10° N 21:09:15 54° ENE 21:13:49 15° SSE visible
26 Sep 3.3 20:50:28 10° N 20:55:55 52° ENE 21:01:24 10° SSE visible
